sat.trackr.live / text

‹ back to catalog

STARLINK-37197

NORAD 68389 · 2026-063K

PAYLOAD ACTIVE UNKNOWN

§ Identity

Operator
Country
US
Launch date
2026-03-26
Launch site
AFWTR
Launch vehicle
Mass (kg)
RCS (m²)

Purposes: comms

External: N2YO · Heavens-Above · Gunter

§ Orbital elements

Epoch: 2026-05-25T00:00:02.000160Z

Period
93.91 min
Inclination
97.2860°
Eccentricity
0.0002115
Mean motion
15.33366885 rev/d
Perigee alt
464.3 km
Apogee alt
467.2 km
Semi-major
6,843.9 km
B*
4.0696e-4
RAAN
287.6164°
Arg perigee
13.0431°
Mean anomaly
340.1258°
Rev number
585

§ Raw data

STARLINK-371971 68389U 26063K   26145.00002315  .00013054  00000+0  40696-3 0  99902 68389  97.2860 287.6164 0002115  13.0431 340.1258 15.33366885  5852

JSON: /api/v1/satellites/68389 · /tle

For live sub-satellite position, see the globe view (requires WebGL).

§ Visibility from observer

Set your observer location to see the next 7 days of passes ≥ 10°. The values pass through the URL so the page stays shareable.

No JS? Fill the form by hand. The geolocation button needs JavaScript.